Regional Weather Roundup
Issued by NWS

Home | Current Version | Previous Version | Text Only | Print | Product List | Glossary Off
Versions: 1 2 3 4 5 6 7 8 9 10 11 12 13 14 15 16 17 18 19 20 21 22 23 24 25 26 27 28 29 30 31 32 33 34 35 36 37 38 39 40 41 42 43 44 45 46 47 48 49 50

000
ASUS44 KOUN 020810
RWROK

WEATHER ROUNDUP FOR OKLAHOMA
NATIONAL WEATHER SERVICE NORMAN OK
300 AM CDT TUE SEP 02 2014

NOTE: "FAIR" INDICATES FEW OR NO CLOUDS BELOW 12,000 FEET WITH NO
      SIGNIFICANT WEATHER AND/OR OBSTRUCTIONS TO VISIBILITY.

OKZ001>007-009>012-014-015-017-020900-
NORTHWEST OKLAHOMA AND THE PANHANDLE

CITY           SKY/WX    TMP DP  RH WIND       PRES   REMARKS
GAGE           CLEAR     69  67  93 NE9       29.87F
ENID/WOODRING  CLEAR     75  72  88 E7        29.84R
$$

OKZ016-021>023-033>039-044-045-020900-
SOUTHWEST OKLAHOMA

CITY           SKY/WX    TMP DP  RH WIND       PRES   REMARKS
LAWTON/REGL    MOCLDY    82  66  58 CALM      29.86R
LAWTON/FT SILL MOCLDY    81  68  64 S9        29.84S
FREDERICK      CLEAR     83  66  56 S12       29.80F
CLINTON        PTCLDY    81  65  58 S15       29.85F
HOBART         PTCLDY    78  68  71 S10       29.84F
ALTUS AFB      CLEAR     79  68  68 SE7       29.83S
$$

OKZ018>020-024>031-020900-
CENTRAL OKLAHOMA

CITY           SKY/WX    TMP DP  RH WIND       PRES   REMARKS
OKLAHOMA CITY  PTCLDY    80  67  64 S15       29.83F
OKC/WILEY POST PTCLDY    82  67  60 S16G25    29.83F
OKC/TINKER AFB PTCLDY    81  67  62 S17       29.84F
STILLWATER     MOCLDY    79  68  69 S6        29.84R
GUTHRIE        PTCLDY    83  67  58 S10       29.82F
$$

OKZ008-013-054>072-020900-
NORTHEAST OKLAHOMA

CITY           SKY/WX    TMP DP  RH WIND       PRES   REMARKS
TULSA          CLOUDY    82  69  64 E3        29.85R
TULSA/JONES    MOCLDY    82  67  60 S3        29.84F
PONCA CITY     CLOUDY    73  69  87 NE8       29.88R
BARTLESVILLE   CLOUDY    71  71 100 CALM      29.89R
MUSKOGEE       MOCLDY    77  68  73 S9        29.87F
$$

OKZ032-040>043-046>053-073>077-020900-
SOUTH CENTRAL/SOUTHEAST OKLAHOMA

CITY           SKY/WX    TMP DP  RH WIND       PRES   REMARKS
ARDMORE/DWNTWN CLEAR     79  68  69 S5        29.86R
MCALESTER      CLOUDY    81  70  69 S9        29.88S
$$



USA.gov is the U.S. government's official web portal to all federal, state and local government web resources and services.